TimeCST,TemperatureF,Dew PointF,Humidity,Sea Level PressureIn,VisibilityMPH,Wind Direction,Wind SpeedMPH,Gust SpeedMPH,PrecipitationIn,Events,Conditions,WindDirDegrees,DateUTC
12:15 AM,32.0,24.8,75,30.23,10.0,NE,8.1,-,N/A,,Overcast,40,2013-01-25 06:15:00
12:35 AM,32.0,24.8,75,30.21,10.0,NE,8.1,-,N/A,,Overcast,40,2013-01-25 06:35:00
12:55 AM,32.0,24.8,75,30.21,10.0,NE,5.8,-,N/A,,Overcast,50,2013-01-25 06:55:00
1:15 AM,32.0,24.8,75,30.19,10.0,NE,6.9,-,N/A,,Overcast,50,2013-01-25 07:15:00
1:35 AM,32.0,24.8,75,30.19,10.0,NNE,5.8,-,N/A,,Overcast,30,2013-01-25 07:35:00
2:15 AM,32.0,24.8,75,30.17,10.0,NE,5.8,-,N/A,,Overcast,40,2013-01-25 08:15:00
2:35 AM,33.8,24.8,70,30.16,10.0,NNE,5.8,-,N/A,,Overcast,20,2013-01-25 08:35:00
2:55 AM,33.8,24.8,70,30.15,10.0,NNE,6.9,-,N/A,,Overcast,20,2013-01-25 08:55:00
3:15 AM,33.8,24.8,70,30.15,10.0,North,6.9,-,N/A,,Overcast,350,2013-01-25 09:15:00
3:35 AM,33.8,24.8,70,30.14,10.0,NNW,8.1,-,N/A,,Overcast,340,2013-01-25 09:35:00
3:55 AM,32.0,26.6,80,30.15,10.0,NNW,10.4,-,N/A,,Overcast,330,2013-01-25 09:55:00
4:35 AM,32.0,24.8,75,30.14,9.0,North,10.4,-,N/A,,Overcast,350,2013-01-25 10:35:00
4:55 AM,32.0,24.8,75,30.15,10.0,NNW,12.7,-,N/A,,Overcast,340,2013-01-25 10:55:00
5:15 AM,32.0,24.8,75,30.14,10.0,NNW,12.7,-,N/A,,Overcast,340,2013-01-25 11:15:00
5:35 AM,30.2,26.6,86,30.15,10.0,NNW,13.8,-,0.02,,Overcast,340,2013-01-25 11:35:00
5:55 AM,30.2,24.8,80,30.16,10.0,NNW,11.5,-,0.02,,Overcast,340,2013-01-25 11:55:00
6:15 AM,30.2,23.0,75,30.13,5.0,ESE,5.8,-,N/A,,Overcast,120,2013-01-25 12:15:00
6:55 AM,30.2,26.6,86,30.15,10.0,NNW,4.6,-,N/A,,Overcast,340,2013-01-25 12:55:00
7:35 AM,30.2,26.6,86,30.17,8.0,NW,9.2,-,N/A,,Overcast,320,2013-01-25 13:35:00
7:56 AM,30.2,26.6,86,30.16,9.0,NW,4.6,-,N/A,,Overcast,320,2013-01-25 13:56:00
8:15 AM,30.2,28.4,93,30.18,7.0,NW,10.4,-,N/A,,Overcast,320,2013-01-25 14:15:00
8:35 AM,32.0,28.4,87,30.19,8.0,NW,9.2,-,N/A,,Overcast,320,2013-01-25 14:35:00
9:15 AM,32.0,26.6,80,30.18,10.0,WNW,3.5,-,N/A,,Partly Cloudy,290,2013-01-25 15:15:00
9:35 AM,33.8,26.6,75,30.21,10.0,NW,9.2,-,N/A,,Clear,310,2013-01-25 15:35:00
9:55 AM,33.8,28.4,81,30.21,10.0,NW,8.1,-,N/A,,Clear,310,2013-01-25 15:55:00
10:16 AM,35.6,28.4,75,30.21,10.0,WNW,6.9,-,N/A,,Clear,290,2013-01-25 16:16:00
10:35 AM,35.6,30.2,81,30.22,10.0,NW,8.1,-,N/A,,Clear,310,2013-01-25 16:35:00
10:55 AM,37.4,30.2,75,30.21,10.0,NNW,6.9,-,N/A,,Clear,330,2013-01-25 16:55:00
11:15 AM,37.4,32.0,81,30.20,10.0,WNW,5.8,-,N/A,,Clear,300,2013-01-25 17:15:00
11:35 AM,39.2,30.2,70,30.19,10.0,NNW,10.4,-,N/A,,Clear,330,2013-01-25 17:35:00
11:55 AM,39.2,32.0,75,30.19,10.0,NW,9.2,-,N/A,,Clear,320,2013-01-25 17:55:00
12:15 PM,42.8,32.0,66,30.19,10.0,NNW,9.2,-,N/A,,Clear,340,2013-01-25 18:15:00
12:35 PM,42.8,30.2,61,30.18,10.0,NW,5.8,-,N/A,,Clear,310,2013-01-25 18:35:00
12:55 PM,44.6,32.0,61,30.17,10.0,NNW,8.1,-,N/A,,Scattered Clouds,340,2013-01-25 18:55:00
1:15 PM,44.6,32.0,61,30.17,10.0,NNW,5.8,-,N/A,,Mostly Cloudy,330,2013-01-25 19:15:00
1:35 PM,44.6,33.8,66,30.17,10.0,North,5.8,-,N/A,,Mostly Cloudy,350,2013-01-25 19:35:00
1:55 PM,44.6,33.8,66,30.18,10.0,NNW,9.2,-,N/A,,Scattered Clouds,330,2013-01-25 19:55:00
2:16 PM,44.6,32.0,61,30.18,10.0,NNW,4.6,-,N/A,,Clear,330,2013-01-25 20:16:00
2:35 PM,44.6,30.2,57,30.18,10.0,West,5.8,-,N/A,,Clear,280,2013-01-25 20:35:00
2:55 PM,46.4,33.8,62,30.18,10.0,West,4.6,-,N/A,,Clear,270,2013-01-25 20:55:00
3:35 PM,46.4,33.8,62,30.17,10.0,SW,6.9,-,N/A,,Clear,230,2013-01-25 21:35:00
3:55 PM,46.4,32.0,57,30.18,10.0,WSW,5.8,-,N/A,,Clear,250,2013-01-25 21:55:00
4:15 PM,44.6,32.0,61,30.19,10.0,WSW,3.5,-,N/A,,Clear,240,2013-01-25 22:15:00
4:55 PM,44.6,32.0,61,30.19,10.0,SSW,4.6,-,N/A,,Clear,210,2013-01-25 22:55:00
5:15 PM,44.6,33.8,66,30.19,10.0,SSW,4.6,-,N/A,,Clear,210,2013-01-25 23:15:00
5:35 PM,42.8,33.8,70,30.20,10.0,South,5.8,-,N/A,,Clear,190,2013-01-25 23:35:00
5:55 PM,41.0,33.8,76,30.20,10.0,South,6.9,-,N/A,,Clear,180,2013-01-25 23:55:00
6:15 PM,41.0,33.8,76,30.20,10.0,South,5.8,-,N/A,,Clear,170,2013-01-26 00:15:00
6:35 PM,39.2,33.8,81,30.20,10.0,South,8.1,-,N/A,,Clear,180,2013-01-26 00:35:00
7:35 PM,41.0,33.8,76,30.22,10.0,WSW,6.9,-,N/A,,Clear,240,2013-01-26 01:35:00
8:15 PM,37.4,32.0,81,30.22,10.0,SW,4.6,-,N/A,,Clear,230,2013-01-26 02:15:00
8:35 PM,39.2,32.0,75,30.23,10.0,SW,4.6,-,N/A,,Clear,230,2013-01-26 02:35:00
8:55 PM,37.4,32.0,81,30.23,10.0,WSW,3.5,-,N/A,,Clear,250,2013-01-26 02:55:00
9:15 PM,37.4,32.0,81,30.23,10.0,WSW,3.5,-,N/A,,Clear,250,2013-01-26 03:15:00
9:35 PM,39.2,32.0,75,30.23,10.0,WSW,5.8,-,N/A,,Clear,250,2013-01-26 03:35:00
9:55 PM,37.4,32.0,81,30.25,10.0,West,3.5,-,N/A,,Clear,260,2013-01-26 03:55:00
10:35 PM,35.6,30.2,81,30.26,10.0,WSW,3.5,-,N/A,,Clear,240,2013-01-26 04:35:00
10:55 PM,37.4,32.0,81,30.26,10.0,West,5.8,-,N/A,,Clear,260,2013-01-26 04:55:00
11:15 PM,37.4,30.2,75,30.26,10.0,West,4.6,-,N/A,,Clear,260,2013-01-26 05:15:00
11:55 PM,35.6,30.2,81,30.26,10.0,WSW,4.6,-,N/A,,Clear,250,2013-01-26 05:55:00